Location: Paderno d�Adda
(45.6667°N, 9.4333°E)
Time: 12:41:19
(UTC+00:00)

USA 238 DEB - Pass Details

Date: 19 September 2020
Orbit: 1004 x 1208 km, 63.4° (Epoch: 28 October)

Event Time Altitude Azimuth Distance (km) Brightness Sun altitude
Rises 18:48:01 0° 321° (NW) 3,935 7.7 -15.1°
Reaches altitude 10° 18:50:41 10° 325° (NW) 3,003 6.9 -15.5°
Maximum altitude 18:57:51 66° 47° (NE) 1,256 3.9 -16.7°
Enters shadow 19:02:32 25° 124° (SE) 2,200 4.7 -17.5°
